Fairfield, CA

10:49 AM PDT on May 21, 2018 (GMT -0700)
Travis Air Force Base

Weather History for KSUU - May, 2014

Change the Weather History Date:

Thursday, May 15, 2014

  Actual Average Record
Temperature  
Mean Temperature 78 °F -  
Max Temperature 95 °F 75 °F 97 °F (2008)
Min Temperature 60 °F 48 °F 43 °F (2011)
Cooling Degree Days 12    
Growing Degree Days 28 (Base 50)    
Moisture  
Dew Point 39 °F    
Average Humidity 29    
Maximum Humidity 49    
Minimum Humidity 11    
Precipitation  
Precipitation 0.00 in - - ()
Sea Level Pressure  
Sea Level Pressure 30.04 in    
Wind  
Wind Speed 11 mph (SW)    
Max Wind Speed 16 mph    
Max Gust Speed -    
Visibility 10 miles    
Events      
Averages and records for this station are not official NWS values.
T = Trace of Precipitation, MM = Missing Value Source: NWS Daily Summary

Daily Weather History Graph

Daily Weather History Graph

Search for Another Location

Airport or City:

Astronomy

May. 15, 2014 Rise Set
Actual Time 5:56 AM PDT 8:12 PM PDT
Civil Twilight 5:27 AM PDT 8:41 PM PDT
Nautical Twilight 4:50 AM PDT 9:18 PM PDT
Astronomical Twilight 4:10 AM PDT 9:58 PM PDT
Moon 9:25 PM PDT (5/15) 6:48 AM PDT (5/15)
Length of Visible Light 15h 14m
Length of Day
14h 15m
Full, 99% of the Moon is Illuminated
May 15
Full
May 21
Last Quarter
May 28
New
Jun 5
First Quarter
Jun 12
Full

Hourly Weather History & Observations

Time (PDT) Temp. Dew Point Humidity Pressure Visibility Wind Dir Wind Speed Gust Speed Precip Events Conditions
12:58 AM 64.6 °F 45.1 °F 49% 30.05 in 10.0 mi SSW 13.8 mph - N/A   Clear
1:58 AM 64.2 °F 38.5 °F 39% 30.04 in 10.0 mi SW 15.0 mph - N/A   Clear
2:58 AM 62.6 °F 37.9 °F 40% 30.03 in 10.0 mi SW 13.8 mph - N/A   Clear
3:58 AM 62.6 °F 38.3 °F 41% 30.03 in 10.0 mi SW 6.9 mph - N/A   Clear
4:58 AM 63.3 °F 38.1 °F 39% 30.03 in 10.0 mi SW 11.5 mph - N/A   Clear
5:58 AM 60.6 °F 39.6 °F 46% 30.04 in 10.0 mi SW 9.2 mph - N/A   Clear
6:58 AM 62.4 °F 42.1 °F 47% 30.06 in 10.0 mi SW 10.4 mph - N/A   Clear
7:58 AM 70.2 °F 40.6 °F 34% 30.07 in 10.0 mi WSW 9.2 mph - N/A   Clear
8:58 AM 76.3 °F 41.9 °F 29% 30.08 in 10.0 mi SW 8.1 mph - N/A   Clear
9:58 AM 81.7 °F 39.9 °F 23% 30.08 in 10.0 mi West 5.8 mph - N/A   Clear
10:58 AM 85.1 °F 41.0 °F 21% 30.08 in 10.0 mi Variable 5.8 mph - N/A   Clear
11:58 AM 89.1 °F 39.2 °F 17% 30.07 in 10.0 mi Variable 3.5 mph - N/A   Clear
12:58 PM 91.0 °F 40.8 °F 17% 30.06 in 9.0 mi SSW 5.8 mph - N/A   Partly Cloudy
1:58 PM 94.1 °F 33.1 °F 12% 30.04 in 10.0 mi SW 12.7 mph - N/A   Partly Cloudy
2:58 PM 95.0 °F 33.3 °F 11% 30.03 in 10.0 mi WSW 10.4 mph - N/A   Partly Cloudy
3:58 PM 95.0 °F 33.3 °F 11% 30.02 in 10.0 mi WSW 16.1 mph - N/A   Clear
4:58 PM 90.7 °F 39.9 °F 17% 30.01 in 10.0 mi WSW 16.1 mph - N/A   Partly Cloudy
5:58 PM 87.1 °F 42.4 °F 21% 30.01 in 10.0 mi SW 12.7 mph - N/A   Clear
6:58 PM 81.0 °F 41.2 °F 24% 30.01 in 10.0 mi SW 11.5 mph - N/A   Clear
7:58 PM 74.5 °F 41.4 °F 30% 30.02 in 10.0 mi SW 11.5 mph - N/A   Clear
8:58 PM 71.1 °F 38.8 °F 31% 30.02 in 10.0 mi SW 13.8 mph - N/A   Clear
9:58 PM 67.8 °F 37.2 °F 32% 30.04 in 10.0 mi SW 11.5 mph - N/A   Clear
10:58 PM 66.2 °F 35.4 °F 32% 30.04 in 10.0 mi SW 16.1 mph - N/A   Clear
11:58 PM 63.9 °F 35.2 °F 35% 30.04 in 10.0 mi SSW 12.7 mph - N/A   Clear